Latest Weather Observations for Padthaway

IDS60801

Issued at 5:35 pm CST Wednesday 23 April 2014 (issued every 30 minutes, with the page automatically refreshed every 10 minutes)

About weather observations | Map of weather stations | Latest weather observations for SA | Other Formats
Station Details ID: 026100 Name: PADTHAWAY SOUTH Lat: -36.65 Lon: 140.52 Height: 37.0 m
Data from the previous 72 hours. | See also: Recent months at Padthaway
Date/Time
CST
Temp
°C
App
Temp
°C
Dew
Point
Rel
Hum
%
Delta-T
°C
Wind Press
QNH
hPa
Press
MSL
hPa
Rain
since 9 am
mm
Dir
 
Spd
km/h
Gust
km/h
Spd
kts
Gust
kts
23/05:30pm 15.8 12.2 4.8 48 5.2 WNW 13 20 7 11 - - 0.0
23/05:00pm 17.0 12.8 4.0 42 6.1 W 15 24 8 13 - - 0.0
23/04:30pm 18.9 14.3 3.5 36 7.2 W 17 24 9 13 - - 0.0
23/04:00pm 18.9 13.9 3.5 36 7.2 NW 19 24 10 13 - - 0.0
23/03:30pm 19.1 14.2 4.1 37 7.1 NW 19 26 10 14 - - 0.0
23/03:00pm 19.9 15.1 4.8 37 7.3 NW 19 26 10 14 - - 0.0
23/02:30pm 19.6 14.9 5.3 39 7.0 NW 19 30 10 16 - - 0.0
23/02:00pm 19.4 15.3 6.2 42 6.6 NW 17 24 9 13 - - 0.0
23/01:30pm 19.2 15.7 7.0 45 6.2 WNW 15 33 8 18 - - 0.0
23/01:00pm 19.1 16.1 7.5 47 5.9 WNW 13 24 7 13 - - 0.0
23/12:30pm 18.7 14.6 7.8 49 5.6 WNW 19 24 10 13 - - 0.0
23/12:00pm 17.8 14.5 8.1 53 5.0 WNW 15 24 8 13 - - 0.0
23/11:30am 17.1 13.7 7.7 54 4.7 NW 15 20 8 11 - - 0.0
23/11:00am 17.0 14.0 7.9 55 4.6 WNW 13 22 7 12 - - 0.0
23/10:30am 15.9 13.1 8.4 61 3.8 NW 13 20 7 11 - - 0.0
23/10:00am 15.5 13.0 9.6 68 3.1 N 13 17 7 9 - - 0.0
23/09:30am 14.2 12.0 9.2 72 2.6 NNW 11 15 6 8 - - 0.0
23/09:00am 12.7 10.0 9.0 78 1.9 NNW 13 17 7 9 - - 0.0
23/08:30am 10.4 8.8 8.2 86 1.1 NNW 6 9 3 5 - - 0.0
23/08:00am 8.4 6.7 7.5 94 0.4 NNW 6 7 3 4 - - 0.0
23/07:30am 5.3 3.0 4.7 96 0.3 NNW 6 7 3 4 - - 0.0
23/07:00am 2.5 0.8 1.8 95 0.3 CALM 0 0 0 0 - - 0.0
23/06:30am 1.9 0.1 1.0 94 0.3 CALM 0 0 0 0 - - 0.0
23/06:00am 1.7 -0.2 0.8 94 0.3 N 0 0 0 0 - - 0.0
23/05:30am 2.1 0.3 1.2 94 0.3 CALM 0 0 0 0 - - 0.0
23/05:00am 1.9 0.1 0.9 93 0.4 N 0 0 0 0 - - 0.0
23/04:30am 2.1 -0.5 1.2 94 0.3 N 4 6 2 3 - - 0.0
23/04:00am 2.4 -0.7 1.5 94 0.3 NNE 7 9 4 5 - - 0.0
23/03:30am 2.8 1.1 1.9 94 0.4 CALM 0 0 0 0 - - 0.0
23/03:00am 2.8 0.0 1.8 93 0.4 NNE 6 7 3 4 - - 0.0
23/02:30am 3.3 0.6 2.4 94 0.4 NNW 6 9 3 5 - - 0.0
23/02:00am 3.4 1.0 2.4 93 0.4 NW 4 9 2 5 - - 0.0
23/01:30am 4.0 2.5 3.0 93 0.4 CALM 0 0 0 0 - - 0.0
23/01:00am 3.9 1.2 2.9 93 0.4 NNE 6 7 3 4 - - 0.0
23/12:30am 4.1 2.6 3.1 93 0.4 CALM 0 0 0 0 - - 0.0
23/12:00am 4.2 2.7 3.0 92 0.5 NNE 0 0 0 0 - - 0.0
 
Date/Time
CST
Temp
°C
App
Temp
°C
Dew
Point
Rel
Hum
%
Delta-T
°C
Wind Press
QNH
hPa
Press
MSL
hPa
Rain
since 9 am
mm
Dir
 
Spd
km/h
Gust
km/h
Spd
kts
Gust
kts
22/11:30pm 4.5 2.7 3.2 91 0.5 NNE 2 6 1 3 - - 0.0
22/11:00pm 4.9 2.4 3.6 91 0.5 NNE 6 7 3 4 - - 0.0
22/10:30pm 5.2 2.5 3.9 91 0.5 NNE 7 9 4 5 - - 0.0
22/10:00pm 5.7 4.4 4.3 91 0.6 CALM 0 0 0 0 - - 0.0
22/09:30pm 6.3 5.1 4.8 90 0.7 CALM 0 0 0 0 - - 0.0
22/09:00pm 7.1 6.0 5.3 88 0.8 CALM 0 0 0 0 - - 0.0
22/08:30pm 8.3 7.6 6.8 90 0.7 CALM 0 0 0 0 - - 0.0
22/08:00pm 8.7 6.7 6.2 84 1.1 WSW 6 7 3 4 - - 0.0
22/07:30pm 10.1 9.1 7.3 83 1.3 SW 2 6 1 3 - - 0.0
22/07:00pm 11.2 9.3 7.7 79 1.7 SSW 7 11 4 6 - - 0.0
22/06:30pm 12.4 10.2 7.9 74 2.2 SW 9 11 5 6 - - 0.0
22/06:00pm 13.9 11.7 7.9 67 3.0 SW 9 13 5 7 - - 0.0
22/05:30pm 15.5 12.5 7.8 60 3.9 SW 13 20 7 11 - - 0.0
22/05:00pm 16.8 13.5 8.2 57 4.4 SW 15 22 8 12 - - 0.0
22/04:30pm 17.4 13.4 8.3 55 4.7 WSW 19 28 10 15 - - 0.0
22/04:00pm 18.3 14.0 7.1 48 5.6 SW 19 24 10 13 - - 0.0
22/03:30pm 18.4 13.9 6.3 45 6.0 SSW 19 32 10 17 - - 0.0
22/03:00pm 19.3 15.0 6.8 44 6.3 SW 19 30 10 16 - - 0.0
22/02:30pm 19.3 15.0 5.4 40 6.8 SW 17 28 9 15 - - 0.0
22/02:00pm 19.2 15.3 7.3 46 6.0 SW 17 26 9 14 - - 0.0
22/01:30pm 19.2 15.3 8.8 51 5.4 SSW 19 28 10 15 - - 0.0
22/01:00pm 19.7 15.6 7.8 46 6.1 SW 19 28 10 15 - - 0.0
22/12:30pm 19.2 15.2 8.2 49 5.7 SW 19 32 10 17 - - 0.0
22/12:00pm 18.9 15.5 9.1 53 5.1 SW 17 24 9 13 - - 0.0
22/11:30am 18.9 15.3 9.7 55 4.9 WSW 19 26 10 14 - - 0.0
22/11:00am 18.4 16.1 10.5 60 4.2 SSW 13 19 7 10 - - 0.0
22/10:30am 17.6 14.4 10.0 61 4.0 SSW 17 35 9 19 - - 0.0
22/10:00am 16.8 14.4 11.3 70 3.0 SSW 15 24 8 13 - - 0.0
22/09:30am 17.0 15.6 12.3 74 2.6 SSW 11 19 6 10 - - 0.0
22/09:00am 16.4 14.8 12.8 79 2.0 SSW 13 20 7 11 - - 1.8
22/08:30am 15.3 14.2 13.1 87 1.2 SSW 11 17 6 9 - - 1.8
22/08:00am 15.1 15.0 13.8 92 0.7 SSW 7 11 4 6 - - 1.8
22/07:30am 15.0 14.8 13.7 92 0.7 SSW 7 11 4 6 - - 1.8
22/07:00am 15.0 14.1 13.7 92 0.7 SW 11 15 6 8 - - 1.8
22/06:30am 15.0 14.5 13.7 92 0.7 W 9 17 5 9 - - 1.8
22/06:00am 15.1 14.2 13.8 92 0.7 W 11 15 6 8 - - 1.8
22/05:30am 15.2 14.8 14.2 94 0.6 W 9 15 5 8 - - 1.6
22/05:00am 14.9 15.1 14.3 96 0.3 W 6 9 3 5 - - 1.4
22/04:30am 14.8 15.3 14.0 95 0.5 SW 4 9 2 5 - - 1.4
22/04:00am 15.4 15.2 14.6 95 0.5 ENE 9 13 5 7 - - 1.4
22/03:30am 15.1 16.0 14.1 94 0.6 E 2 11 1 6 - - 1.4
22/03:00am 15.4 16.4 14.3 93 0.6 SSW 2 9 1 5 - - 1.0
22/02:30am 15.4 16.6 13.9 91 0.8 CALM 0 0 0 0 - - 1.0
22/02:00am 15.8 15.7 14.0 89 1.0 SW 7 9 4 5 - - 0.8
22/01:30am 15.5 15.4 13.9 90 0.9 WNW 7 15 4 8 - - 0.8
22/01:00am 15.8 15.3 13.8 88 1.1 NE 9 13 5 7 - - 0.8
22/12:30am 15.5 14.8 13.3 87 1.2 N 9 13 5 7 - - 0.6
22/12:00am 16.2 14.9 12.4 78 2.1 NW 11 17 6 9 - - 0.2
 
Date/Time
CST
Temp
°C
App
Temp
°C
Dew
Point
Rel
Hum
%
Delta-T
°C
Wind Press
QNH
hPa
Press
MSL
hPa
Rain
since 9 am
mm
Dir
 
Spd
km/h
Gust
km/h
Spd
kts
Gust
kts
21/11:30pm 16.3 16.1 11.7 74 2.5 SW 4 7 2 4 - - 0.0
21/11:00pm 16.7 16.7 11.0 69 3.1 NNE 2 7 1 4 - - 0.0
21/10:30pm 16.8 15.8 11.1 69 3.1 E 7 13 4 7 - - 0.0
21/10:00pm 18.1 16.7 9.7 58 4.4 W 7 11 4 6 - - 0.0
21/09:30pm 17.7 16.3 11.0 65 3.6 N 9 11 5 6 - - 0.0
21/09:00pm 18.1 16.6 10.7 62 4.0 N 9 13 5 7 - - 0.0
21/08:30pm 18.6 18.8 10.4 59 4.4 CALM 0 4 0 2 - - 0.0
21/08:00pm 19.5 18.1 9.7 53 5.2 N 7 9 4 5 - - 0.0
21/07:30pm 22.0 19.8 9.2 44 6.9 W 11 13 6 7 - - 0.0
21/07:00pm 21.3 19.4 8.9 45 6.6 W 9 11 5 6 - - 0.0
21/06:30pm 22.5 20.6 9.0 42 7.2 NNW 9 11 5 6 - - 0.0
21/06:00pm 23.3 20.4 8.2 38 8.0 NNW 13 17 7 9 - - 0.0
21/05:30pm 24.1 21.2 8.1 36 8.5 NNW 13 20 7 11 - - 0.0
21/05:00pm 24.8 21.5 7.9 34 9.0 NNW 15 22 8 12 - - 0.0
21/04:30pm 25.6 21.2 7.2 31 9.7 NNW 20 35 11 19 - - 0.0
21/04:00pm 25.7 21.3 7.3 31 9.7 NNW 20 28 11 15 - - 0.0
21/03:30pm 25.0 20.7 7.2 32 9.4 N 19 30 10 16 - - 0.0
21/03:00pm 24.8 19.9 7.0 32 9.3 NNW 22 32 12 17 - - 0.0
21/02:30pm 24.8 19.8 6.5 31 9.5 NNW 22 39 12 21 - - 0.0
21/02:00pm 24.6 18.9 6.8 32 9.3 N 26 41 14 22 - - 0.0
21/01:30pm 24.8 18.8 7.0 32 9.3 N 28 43 15 23 - - 0.0
21/01:00pm 24.0 18.7 6.7 33 9.0 N 24 37 13 20 - - 0.0
21/12:30pm 23.7 18.4 6.9 34 8.7 N 24 37 13 20 - - 0.0
21/12:00pm 22.1 16.7 6.3 36 8.0 N 24 39 13 21 - - 0.0
21/11:30am 21.2 14.6 5.9 37 7.7 N 30 48 16 26 - - 0.0
21/11:00am 20.9 13.8 5.7 37 7.6 N 32 50 17 27 - - 0.0
21/10:35am 20.9 14.6 5.7 37 7.6 N 28 46 15 25 - - 0.0
21/10:30am 20.7 13.6 5.5 37 7.5 N 32 46 17 25 - - 0.0
21/10:00am 20.1 14.1 5.4 38 7.2 N 26 37 14 20 - - 0.0
21/09:30am 19.7 13.7 5.4 39 7.0 N 26 39 14 21 - - 0.0
21/09:00am 17.2 11.6 5.5 46 5.7 N 24 39 13 21 - - 0.0
21/08:30am 16.5 10.9 5.5 48 5.3 N 24 39 13 21 - - 0.0
21/08:00am 15.4 10.3 5.9 53 4.6 N 22 30 12 16 - - 0.0
21/07:30am 14.8 10.3 5.9 55 4.3 N 19 30 10 16 - - 0.0
21/07:00am 13.7 10.5 6.8 63 3.3 NNE 13 19 7 10 - - 0.0
21/06:30am 12.4 9.8 7.7 73 2.3 NNE 11 15 6 8 - - 0.0
21/06:00am 12.0 9.9 8.3 78 1.8 ENE 9 11 5 6 - - 0.0
21/05:30am 12.9 10.5 8.6 75 2.1 NNE 11 17 6 9 - - 0.0
21/05:00am 12.8 10.1 9.1 78 1.9 NNE 13 17 7 9 - - 0.0
21/04:30am 13.2 10.3 9.5 78 1.9 NNE 15 24 8 13 - - 0.0
21/04:00am 12.4 10.4 10.3 87 1.1 NNE 11 15 6 8 - - 0.0
21/03:30am 12.1 10.7 11.0 93 0.6 N 9 13 5 7 - - 0.0
21/03:00am 10.8 9.4 9.6 92 0.6 NNE 7 9 4 5 - - 0.0
21/02:30am 10.5 10.3 8.9 90 0.8 CALM 0 0 0 0 - - 0.0
21/02:00am 11.0 9.6 9.6 91 0.7 N 7 9 4 5 - - 0.0
21/01:30am 12.1 10.6 10.7 91 0.7 N 9 11 5 6 - - 0.0
21/01:00am 12.8 11.3 11.9 94 0.5 NNE 11 15 6 8 - - 0.0
21/12:30am 11.1 9.8 10.0 93 0.6 ENE 7 9 4 5 - - 0.0
21/12:00am 10.8 8.7 9.7 93 0.6 N 11 13 6 7 - - 0.0
 
Date/Time
CST
Temp
°C
App
Temp
°C
Dew
Point
Rel
Hum
%
Delta-T
°C
Wind Press
QNH
hPa
Press
MSL
hPa
Rain
since 9 am
mm
Dir
 
Spd
km/h
Gust
km/h
Spd
kts
Gust
kts
20/11:30pm 9.9 7.9 8.7 92 0.6 N 9 11 5 6 - - 0.0
20/11:00pm 9.2 7.3 7.5 89 0.8 NNW 7 9 4 5 - - 0.0
20/10:30pm 10.0 9.3 8.6 91 0.7 WSW 2 7 1 4 - - 0.0
20/10:00pm 9.8 7.6 7.9 88 0.9 N 9 11 5 6 - - 0.0
20/09:30pm 10.2 8.4 8.1 87 1.0 N 7 9 4 5 - - 0.0
20/09:00pm 10.6 8.1 8.0 84 1.3 N 11 11 6 6 - - 0.0
20/08:30pm 11.7 9.8 9.1 84 1.3 NNW 9 11 5 6 - - 0.0
20/08:00pm 12.9 11.1 9.5 80 1.7 NW 9 11 5 6 - - 0.0
20/07:30pm 15.1 13.6 10.7 75 2.3 WNW 9 13 5 7 - - 0.0
20/07:00pm 16.6 15.2 10.9 69 3.1 WNW 9 13 5 7 - - 0.0
20/06:30pm 16.8 15.4 10.9 68 3.2 W 9 15 5 8 - - 0.0
20/06:00pm 17.0 14.4 10.8 67 3.3 W 15 24 8 13 - - 0.0

Other Formats:

Comma delimited format used in spreadsheet applications
http://www.bom.gov.au/fwo/IDS60801/IDS60801.95823.axf

JavaScript Object Notation format (JSON) in row-major order
http://www.bom.gov.au/fwo/IDS60801/IDS60801.95823.json